User: anonymous   Login
Location: Nairn
(57.5833°N, 3.8667°W)
Time: 21:36:26
(UTC+00:00)
Language:

Cosmos 1892 Rocket - Orbit

View from above orbital plane
View from above orbital plane
View from above satellite
View from above satellite

Ground track
Ground track

The orbit data is extracted from the following two-line orbital elements,

1 18422U 87088B   21210.09888656  .00000079  00000-0  66950-5 0  9991
2 18422  82.5102 208.4112 0019931 164.0359 267.7461 14.83081980824566
Epoch (UTC): 29 July 2021 02:22:23
Eccentricity: 0.0019931
inclination: 82.5102°
perigee height: 605 km
apogee height: 633 km
right ascension of ascending node: 208.4112°
argument of perigee: 164.0359°
revolutions per day: 14.83081980
mean anomaly at epoch: 267.7461°
orbit number at epoch: 82456

The dashed part of the orbit path shows where the satellite is in the earth's shadow,  

DLR